GEFSSE_prec_meanprecacc_018.txt.gz
Total_Precipitation_Accumulation
0.00 0.00 0.01 0.00 0.01 0.03 0.03 0.02 0.01 0.00 0.00 0.00 0.00 0.00 0.00 0.00 0.00 0.00 0.00 0.01 0.01 0.01 0.02 0.02 0.02 0.02 0.02 0.02 0.02 0.01 0.00 0.00 0.00 0.00 0.00 0.00 0.00 0.00 0.00 0.00 0.00 0.00 0.00
0.00 0.00 0.00 0.00 0.01 0.03 0.05 0.05 0.03 0.02 0.00 0.00 0.00 0.01 0.01 0.01 0.00 0.00 0.00 0.00 0.00 0.01 0.01 0.02 0.02 0.01 0.01 0.01 0.01 0.01 0.01 0.00 0.00 0.00 0.00 0.00 0.00 0.00 0.00 0.00 0.00 0.00 0.00
0.00 0.00 0.00 0.00 0.01 0.02 0.05 0.05 0.06 0.05 0.01 0.01 0.01 0.03 0.06 0.03 0.01 0.00 0.00 0.00 0.00 0.00 0.00 0.01 0.01 0.01 0.00 0.00 0.00 0.01 0.01 0.01 0.00 0.00 0.00 0.00 0.00 0.00 0.00 0.00 0.00 0.00 0.00
0.00 0.00 0.00 0.00 0.01 0.01 0.03 0.05 0.07 0.06 0.03 0.02 0.04 0.06 0.07 0.04 0.01 0.00 0.00 0.00 0.00 0.00 0.00 0.00 0.01 0.00 0.00 0.00 0.00 0.00 0.00 0.00 0.00 0.00 0.00 0.01 0.02 0.01 0.00 0.00 0.00 0.00 0.00
0.00 0.00 0.01 0.01 0.01 0.01 0.02 0.03 0.07 0.09 0.06 0.05 0.08 0.09 0.07 0.05 0.03 0.02 0.01 0.02 0.02 0.00 0.00 0.00 0.01 0.01 0.00 0.00 0.00 0.00 0.00 0.00 0.00 0.00 0.01 0.02 0.04 0.02 0.00 0.00 0.01 0.01 0.01
0.00 0.00 0.00 0.02 0.02 0.02 0.02 0.02 0.04 0.09 0.08 0.06 0.08 0.11 0.09 0.10 0.11 0.06 0.02 0.04 0.04 0.02 0.01 0.01 0.00 0.00 0.00 0.01 0.00 0.00 0.00 0.00 0.00 0.01 0.01 0.01 0.03 0.03 0.00 0.00 0.01 0.01 0.01
0.00 0.00 0.00 0.02 0.02 0.01 0.01 0.03 0.03 0.04 0.06 0.04 0.05 0.05 0.04 0.07 0.14 0.10 0.07 0.05 0.05 0.03 0.01 0.00 0.00 0.00 0.00 0.01 0.00 0.00 0.00 0.00 0.00 0.02 0.01 0.01 0.01 0.02 0.02 0.04 0.03 0.04 0.03
0.00 0.00 0.00 0.01 0.01 0.00 0.00 0.02 0.03 0.03 0.02 0.01 0.01 0.00 0.01 0.02 0.03 0.06 0.06 0.05 0.03 0.02 0.01 0.00 0.00 0.00 0.01 0.01 0.01 0.01 0.01 0.00 0.01 0.02 0.02 0.02 0.04 0.06 0.12 0.14 0.12 0.12 0.11
0.00 0.00 0.00 0.00 0.01 0.00 0.00 0.01 0.02 0.02 0.02 0.01 0.00 0.00 0.01 0.01 0.02 0.04 0.05 0.05 0.05 0.03 0.02 0.01 0.01 0.01 0.01 0.01 0.01 0.01 0.01 0.00 0.00 0.01 0.03 0.09 0.20 0.20 0.26 0.30 0.23 0.19 0.19
0.00 0.00 0.00 0.00 0.01 0.01 0.01 0.01 0.02 0.02 0.01 0.01 0.00 0.00 0.00 0.01 0.01 0.03 0.03 0.03 0.06 0.06 0.03 0.02 0.01 0.01 0.02 0.01 0.01 0.02 0.01 0.00 0.00 0.00 0.01 0.06 0.15 0.22 0.29 0.32 0.29 0.26 0.25
0.00 0.00 0.00 0.00 0.01 0.01 0.01 0.00 0.01 0.01 0.01 0.01 0.02 0.02 0.02 0.01 0.03 0.05 0.04 0.04 0.04 0.05 0.05 0.04 0.03 0.03 0.03 0.01 0.01 0.02 0.01 0.00 0.00 0.00 0.00 0.08 0.13 0.17 0.23 0.26 0.29 0.34 0.36
0.00 0.00 0.00 0.00 0.00 0.00 0.00 0.00 0.00 0.00 0.00 0.00 0.01 0.04 0.05 0.06 0.05 0.03 0.05 0.07 0.11 0.15 0.11 0.09 0.08 0.06 0.05 0.03 0.11 0.22 0.04 0.01 0.01 0.01 0.01 0.05 0.11 0.20 0.21 0.20 0.23 0.27 0.29
0.00 0.00 0.00 0.00 0.00 0.00 0.00 0.00 0.00 0.00 0.00 0.00 0.00 0.00 0.01 0.01 0.01 0.00 0.02 0.07 0.12 0.17 0.15 0.20 0.20 0.18 0.13 0.09 0.13 0.17 0.06 0.03 0.03 0.01 0.03 0.07 0.10 0.16 0.20 0.17 0.17 0.17 0.15
0.00 0.00 0.00 0.00 0.00 0.00 0.00 0.00 0.00 0.00 0.00 0.00 0.00 0.00 0.00 0.00 0.00 0.02 0.07 0.13 0.13 0.13 0.18 0.12 0.13 0.12 0.05 0.02 0.02 0.02 0.02 0.02 0.03 0.04 0.08 0.07 0.06 0.11 0.15 0.14 0.12 0.10 0.13
0.00 0.00 0.00 0.00 0.00 0.00 0.00 0.00 0.00 0.00 0.00 0.00 0.00 0.00 0.00 0.01 0.04 0.07 0.07 0.09 0.04 0.08 0.11 0.07 0.04 0.07 0.08 0.05 0.03 0.02 0.02 0.03 0.02 0.03 0.08 0.08 0.05 0.05 0.06 0.08 0.08 0.08 0.11
0.00 0.00 0.00 0.00 0.00 0.00 0.00 0.00 0.00 0.00 0.00 0.00 0.00 0.00 0.00 0.02 0.07 0.12 0.11 0.08 0.06 0.07 0.12 0.14 0.12 0.22 0.16 0.09 0.08 0.07 0.05 0.04 0.03 0.04 0.05 0.07 0.06 0.03 0.02 0.04 0.05 0.05 0.06
0.00 0.00 0.01 0.02 0.00 0.00 0.00 0.00 0.01 0.02 0.01 0.00 0.00 0.01 0.01 0.02 0.06 0.12 0.15 0.12 0.12 0.10 0.15 0.18 0.22 0.27 0.13 0.12 0.09 0.06 0.04 0.02 0.02 0.01 0.01 0.03 0.07 0.07 0.04 0.03 0.03 0.04 0.04
0.00 0.01 0.02 0.06 0.02 0.01 0.01 0.02 0.04 0.05 0.03 0.02 0.02 0.02 0.04 0.05 0.08 0.12 0.14 0.10 0.13 0.20 0.22 0.22 0.26 0.23 0.17 0.11 0.07 0.04 0.02 0.02 0.01 0.00 0.00 0.01 0.03 0.05 0.04 0.03 0.03 0.03 0.04
0.03 0.02 0.03 0.04 0.03 0.03 0.04 0.05 0.10 0.12 0.09 0.07 0.08 0.08 0.10 0.09 0.10 0.15 0.14 0.16 0.20 0.23 0.24 0.17 0.22 0.19 0.22 0.18 0.09 0.07 0.04 0.02 0.01 0.01 0.01 0.01 0.01 0.01 0.01 0.01 0.01 0.02 0.05
0.10 0.10 0.12 0.12 0.09 0.08 0.09 0.10 0.15 0.17 0.15 0.16 0.17 0.19 0.19 0.15 0.15 0.21 0.22 0.25 0.24 0.28 0.27 0.25 0.29 0.32 0.33 0.29 0.16 0.14 0.10 0.05 0.03 0.03 0.04 0.03 0.02 0.01 0.01 0.01 0.01 0.02 0.06
0.33 0.34 0.34 0.34 0.29 0.26 0.26 0.27 0.28 0.26 0.21 0.20 0.20 0.19 0.18 0.15 0.15 0.22 0.19 0.24 0.22 0.21 0.27 0.30 0.36 0.34 0.36 0.42 0.32 0.17 0.08 0.05 0.06 0.08 0.11 0.11 0.06 0.02 0.02 0.01 0.01 0.00 0.01
0.66 0.65 0.61 0.55 0.49 0.51 0.55 0.58 0.57 0.52 0.42 0.33 0.27 0.21 0.16 0.13 0.13 0.15 0.18 0.18 0.21 0.31 0.42 0.44 0.54 0.48 0.35 0.42 0.40 0.29 0.12 0.12 0.17 0.14 0.17 0.17 0.10 0.05 0.04 0.03 0.02 0.02 0.02
0.55 0.60 0.70 0.74 0.72 0.74 0.77 0.76 0.70 0.67 0.60 0.46 0.30 0.21 0.17 0.14 0.13 0.16 0.20 0.25 0.38 0.47 0.51 0.55 0.56 0.55 0.44 0.44 0.49 0.48 0.29 0.23 0.15 0.06 0.09 0.11 0.11 0.11 0.09 0.09 0.07 0.05 0.04
0.50 0.60 0.76 0.86 0.87 0.90 0.93 0.89 0.78 0.65 0.51 0.39 0.29 0.21 0.17 0.14 0.15 0.18 0.21 0.28 0.34 0.40 0.46 0.43 0.51 0.61 0.57 0.48 0.54 0.56 0.49 0.38 0.27 0.13 0.09 0.08 0.12 0.14 0.15 0.14 0.09 0.06 0.05
0.54 0.65 0.73 0.79 0.82 0.83 0.80 0.77 0.69 0.54 0.40 0.30 0.22 0.19 0.17 0.16 0.20 0.24 0.25 0.28 0.28 0.31 0.41 0.46 0.53 0.57 0.59 0.55 0.53 0.58 0.58 0.50 0.48 0.39 0.25 0.21 0.18 0.10 0.11 0.10 0.06 0.03 0.03
0.64 0.73 0.78 0.76 0.72 0.67 0.61 0.60 0.53 0.41 0.30 0.21 0.17 0.15 0.12 0.14 0.18 0.25 0.30 0.33 0.33 0.37 0.45 0.48 0.50 0.48 0.51 0.52 0.54 0.57 0.58 0.56 0.58 0.57 0.42 0.30 0.19 0.08 0.05 0.03 0.02 0.02 0.03

GEFSSE_prec_meanprecacc_024.txt.gz
Total_Precipitation_Accumulation
0.00 0.00 0.01 0.01 0.01 0.03 0.03 0.02 0.01 0.00 0.00 0.01 0.01 0.02 0.01 0.01 0.00 0.00 0.00 0.01 0.01 0.01 0.02 0.03 0.03 0.03 0.02 0.02 0.02 0.01 0.00 0.00 0.00 0.00 0.00 0.00 0.00 0.00 0.00 0.00 0.00 0.00 0.00
0.00 0.00 0.00 0.00 0.01 0.03 0.05 0.05 0.03 0.02 0.00 0.00 0.01 0.01 0.02 0.01 0.00 0.00 0.00 0.00 0.00 0.01 0.01 0.02 0.02 0.01 0.01 0.01 0.01 0.01 0.01 0.00 0.00 0.00 0.00 0.00 0.00 0.00 0.00 0.00 0.00 0.00 0.00
0.00 0.00 0.00 0.00 0.01 0.02 0.05 0.05 0.06 0.05 0.01 0.01 0.01 0.03 0.06 0.03 0.01 0.00 0.00 0.00 0.00 0.00 0.00 0.01 0.01 0.01 0.00 0.00 0.00 0.01 0.01 0.01 0.00 0.00 0.00 0.00 0.00 0.00 0.00 0.00 0.00 0.00 0.00
0.00 0.00 0.00 0.00 0.01 0.01 0.03 0.05 0.07 0.06 0.03 0.02 0.04 0.06 0.07 0.04 0.01 0.00 0.00 0.00 0.00 0.00 0.00 0.00 0.01 0.00 0.00 0.00 0.00 0.00 0.00 0.00 0.00 0.00 0.00 0.02 0.02 0.01 0.00 0.00 0.00 0.00 0.00
0.00 0.00 0.01 0.01 0.01 0.01 0.02 0.03 0.07 0.09 0.06 0.05 0.08 0.09 0.07 0.06 0.03 0.02 0.01 0.02 0.02 0.00 0.00 0.00 0.01 0.01 0.00 0.00 0.00 0.00 0.00 0.00 0.00 0.00 0.01 0.03 0.06 0.03 0.00 0.01 0.01 0.01 0.01
0.00 0.00 0.00 0.02 0.02 0.02 0.02 0.02 0.04 0.09 0.08 0.06 0.08 0.11 0.09 0.10 0.12 0.07 0.03 0.04 0.04 0.02 0.01 0.01 0.00 0.00 0.01 0.01 0.00 0.00 0.00 0.00 0.00 0.01 0.01 0.01 0.06 0.05 0.02 0.05 0.06 0.05 0.03
0.00 0.00 0.00 0.02 0.02 0.01 0.01 0.03 0.03 0.04 0.06 0.04 0.05 0.05 0.04 0.07 0.14 0.11 0.07 0.05 0.05 0.03 0.02 0.01 0.00 0.01 0.01 0.01 0.01 0.01 0.01 0.00 0.01 0.02 0.02 0.01 0.02 0.03 0.04 0.12 0.15 0.14 0.12
0.00 0.00 0.00 0.01 0.01 0.00 0.00 0.02 0.03 0.03 0.02 0.01 0.01 0.00 0.01 0.02 0.03 0.06 0.06 0.06 0.04 0.02 0.02 0.01 0.01 0.01 0.01 0.02 0.02 0.02 0.02 0.01 0.01 0.02 0.02 0.02 0.04 0.06 0.13 0.22 0.25 0.25 0.22
0.00 0.00 0.00 0.00 0.01 0.00 0.00 0.01 0.02 0.02 0.02 0.01 0.00 0.00 0.01 0.01 0.02 0.04 0.05 0.05 0.05 0.04 0.03 0.02 0.02 0.02 0.02 0.02 0.02 0.02 0.02 0.01 0.01 0.02 0.03 0.09 0.20 0.20 0.28 0.36 0.33 0.30 0.29
0.00 0.00 0.00 0.00 0.01 0.01 0.01 0.01 0.02 0.02 0.01 0.01 0.00 0.00 0.00 0.01 0.01 0.03 0.03 0.03 0.06 0.07 0.04 0.03 0.02 0.02 0.03 0.02 0.01 0.02 0.02 0.01 0.00 0.00 0.01 0.06 0.15 0.22 0.29 0.36 0.35 0.34 0.33
0.00 0.00 0.00 0.00 0.01 0.01 0.01 0.00 0.01 0.01 0.01 0.01 0.02 0.02 0.02 0.01 0.03 0.06 0.04 0.05 0.05 0.07 0.07 0.06 0.06 0.06 0.05 0.02 0.02 0.03 0.02 0.00 0.00 0.00 0.00 0.08 0.14 0.19 0.26 0.30 0.33 0.39 0.44
0.00 0.00 0.00 0.00 0.00 0.00 0.00 0.00 0.00 0.00 0.00 0.00 0.01 0.04 0.06 0.07 0.05 0.03 0.05 0.07 0.14 0.20 0.16 0.13 0.15 0.10 0.08 0.06 0.17 0.26 0.06 0.01 0.02 0.02 0.02 0.07 0.14 0.27 0.31 0.28 0.28 0.33 0.35
0.00 0.00 0.00 0.00 0.00 0.00 0.00 0.00 0.00 0.00 0.00 0.00 0.00 0.00 0.01 0.01 0.01 0.00 0.02 0.08 0.12 0.19 0.18 0.25 0.28 0.24 0.21 0.18 0.21 0.24 0.09 0.06 0.05 0.03 0.04 0.10 0.14 0.25 0.32 0.27 0.25 0.23 0.21
0.00 0.00 0.00 0.00 0.00 0.00 0.00 0.00 0.00 0.00 0.00 0.00 0.00 0.00 0.00 0.00 0.00 0.02 0.07 0.13 0.13 0.14 0.22 0.19 0.24 0.22 0.11 0.07 0.07 0.06 0.06 0.08 0.08 0.10 0.16 0.11 0.10 0.18 0.25 0.23 0.18 0.15 0.18
0.00 0.00 0.00 0.00 0.00 0.00 0.00 0.00 0.00 0.00 0.00 0.00 0.00 0.00 0.00 0.01 0.04 0.08 0.07 0.09 0.05 0.09 0.14 0.12 0.09 0.12 0.12 0.07 0.05 0.04 0.06 0.08 0.08 0.13 0.16 0.15 0.10 0.09 0.11 0.15 0.14 0.13 0.16
0.00 0.00 0.00 0.00 0.00 0.00 0.00 0.00 0.00 0.00 0.00 0.00 0.00 0.00 0.00 0.02 0.08 0.13 0.12 0.10 0.08 0.10 0.16 0.17 0.15 0.26 0.19 0.12 0.09 0.08 0.07 0.07 0.07 0.11 0.12 0.13 0.09 0.05 0.04 0.06 0.09 0.10 0.10
0.00 0.00 0.01 0.02 0.00 0.00 0.00 0.00 0.01 0.02 0.01 0.01 0.01 0.01 0.02 0.04 0.10 0.17 0.19 0.16 0.17 0.16 0.21 0.23 0.26 0.31 0.16 0.13 0.09 0.07 0.04 0.03 0.04 0.05 0.04 0.05 0.08 0.08 0.04 0.03 0.05 0.06 0.07
0.00 0.01 0.03 0.06 0.02 0.01 0.01 0.02 0.04 0.05 0.04 0.04 0.04 0.06 0.09 0.12 0.16 0.23 0.23 0.18 0.25 0.30 0.30 0.30 0.33 0.28 0.21 0.15 0.09 0.05 0.02 0.02 0.01 0.01 0.01 0.02 0.04 0.05 0.04 0.03 0.04 0.05 0.06
0.03 0.03 0.04 0.04 0.03 0.04 0.05 0.06 0.10 0.13 0.11 0.13 0.16 0.17 0.22 0.23 0.26 0.33 0.29 0.31 0.34 0.34 0.35 0.24 0.28 0.25 0.27 0.23 0.13 0.10 0.05 0.02 0.01 0.01 0.01 0.01 0.01 0.02 0.02 0.02 0.02 0.03 0.07
0.11 0.11 0.13 0.14 0.11 0.12 0.14 0.14 0.19 0.22 0.22 0.26 0.32 0.38 0.41 0.38 0.38 0.44 0.41 0.42 0.38 0.39 0.37 0.34 0.36 0.38 0.37 0.34 0.19 0.15 0.11 0.05 0.03 0.03 0.04 0.03 0.02 0.01 0.01 0.02 0.04 0.04 0.07
0.34 0.37 0.39 0.40 0.35 0.35 0.36 0.39 0.46 0.49 0.49 0.49 0.48 0.46 0.45 0.41 0.41 0.49 0.42 0.43 0.35 0.30 0.34 0.36 0.41 0.38 0.39 0.47 0.35 0.18 0.08 0.05 0.06 0.08 0.11 0.11 0.07 0.03 0.02 0.02 0.05 0.06 0.05
0.70 0.70 0.68 0.62 0.59 0.66 0.77 0.86 0.94 0.96 0.87 0.76 0.69 0.62 0.56 0.51 0.49 0.48 0.46 0.38 0.33 0.38 0.46 0.47 0.56 0.50 0.36 0.44 0.44 0.33 0.13 0.12 0.17 0.14 0.17 0.17 0.11 0.06 0.04 0.04 0.05 0.08 0.09
0.64 0.70 0.80 0.83 0.84 0.89 0.99 1.08 1.12 1.12 1.07 0.96 0.83 0.74 0.66 0.55 0.48 0.47 0.44 0.41 0.47 0.52 0.55 0.57 0.57 0.56 0.45 0.45 0.53 0.54 0.34 0.25 0.16 0.07 0.10 0.11 0.13 0.13 0.11 0.10 0.09 0.10 0.10
0.57 0.68 0.85 0.95 0.97 1.03 1.10 1.13 1.11 1.10 1.00 0.93 0.87 0.77 0.67 0.57 0.51 0.46 0.43 0.43 0.43 0.44 0.48 0.43 0.51 0.62 0.59 0.49 0.56 0.61 0.58 0.48 0.36 0.17 0.11 0.12 0.17 0.18 0.18 0.16 0.11 0.08 0.08
0.58 0.69 0.79 0.88 0.91 0.93 0.93 0.93 0.93 0.90 0.87 0.84 0.75 0.69 0.59 0.52 0.50 0.46 0.41 0.39 0.35 0.34 0.42 0.47 0.53 0.57 0.60 0.57 0.56 0.62 0.63 0.59 0.59 0.50 0.33 0.30 0.28 0.18 0.16 0.14 0.08 0.05 0.05
0.66 0.75 0.81 0.81 0.78 0.75 0.72 0.73 0.74 0.75 0.77 0.74 0.69 0.66 0.58 0.50 0.47 0.47 0.46 0.42 0.38 0.39 0.46 0.49 0.51 0.48 0.52 0.55 0.57 0.62 0.64 0.65 0.70 0.72 0.57 0.44 0.33 0.18 0.14 0.10 0.07 0.05 0.05

GEFSSE_prec_meanprecacc_030.txt.gz
Total_Precipitation_Accumulation
0.00 0.00 0.01 0.01 0.01 0.03 0.03 0.02 0.01 0.01 0.01 0.01 0.02 0.02 0.01 0.01 0.00 0.00 0.00 0.01 0.01 0.01 0.02 0.03 0.03 0.03 0.02 0.02 0.02 0.01 0.00 0.00 0.00 0.00 0.00 0.00 0.00 0.00 0.00 0.00 0.01 0.00 0.00
0.00 0.00 0.00 0.00 0.01 0.03 0.05 0.05 0.03 0.02 0.01 0.01 0.01 0.02 0.02 0.01 0.00 0.00 0.00 0.00 0.00 0.01 0.01 0.02 0.02 0.01 0.01 0.01 0.01 0.01 0.01 0.00 0.00 0.00 0.00 0.00 0.00 0.00 0.00 0.00 0.01 0.00 0.00
0.00 0.00 0.00 0.00 0.01 0.03 0.05 0.05 0.06 0.05 0.02 0.01 0.01 0.03 0.06 0.03 0.01 0.00 0.00 0.00 0.00 0.00 0.00 0.01 0.01 0.01 0.00 0.00 0.00 0.01 0.01 0.01 0.00 0.00 0.00 0.01 0.00 0.00 0.00 0.00 0.00 0.00 0.00
0.00 0.00 0.00 0.00 0.01 0.02 0.03 0.05 0.07 0.06 0.03 0.02 0.04 0.06 0.07 0.04 0.01 0.00 0.00 0.00 0.00 0.00 0.00 0.00 0.01 0.00 0.00 0.00 0.00 0.00 0.00 0.00 0.00 0.00 0.00 0.03 0.04 0.01 0.00 0.00 0.00 0.00 0.00
0.00 0.00 0.01 0.01 0.01 0.02 0.02 0.03 0.07 0.09 0.06 0.05 0.08 0.09 0.07 0.06 0.04 0.02 0.02 0.02 0.02 0.00 0.00 0.00 0.01 0.01 0.00 0.00 0.00 0.00 0.00 0.00 0.00 0.00 0.01 0.03 0.08 0.04 0.00 0.01 0.01 0.01 0.01
0.00 0.00 0.00 0.02 0.02 0.02 0.02 0.02 0.04 0.09 0.08 0.06 0.08 0.11 0.09 0.11 0.12 0.07 0.03 0.04 0.05 0.02 0.01 0.01 0.00 0.00 0.01 0.01 0.00 0.00 0.00 0.00 0.00 0.01 0.01 0.02 0.10 0.10 0.03 0.06 0.08 0.07 0.04
0.00 0.00 0.00 0.02 0.02 0.01 0.02 0.03 0.03 0.05 0.06 0.04 0.05 0.05 0.04 0.08 0.15 0.11 0.07 0.05 0.05 0.03 0.02 0.01 0.01 0.01 0.01 0.01 0.01 0.01 0.01 0.00 0.01 0.02 0.02 0.01 0.04 0.05 0.06 0.14 0.18 0.18 0.16
0.00 0.00 0.00 0.01 0.01 0.01 0.00 0.02 0.04 0.04 0.02 0.01 0.01 0.00 0.01 0.02 0.03 0.06 0.07 0.06 0.04 0.02 0.02 0.01 0.01 0.01 0.01 0.02 0.02 0.02 0.02 0.01 0.01 0.02 0.02 0.03 0.05 0.07 0.15 0.24 0.27 0.28 0.28
0.00 0.00 0.00 0.00 0.01 0.00 0.00 0.01 0.02 0.02 0.02 0.01 0.00 0.00 0.01 0.01 0.02 0.04 0.05 0.05 0.05 0.04 0.03 0.02 0.02 0.02 0.02 0.02 0.02 0.02 0.02 0.01 0.01 0.02 0.03 0.09 0.20 0.21 0.29 0.37 0.33 0.31 0.32
0.00 0.00 0.00 0.00 0.01 0.01 0.01 0.01 0.02 0.02 0.01 0.01 0.00 0.00 0.00 0.01 0.01 0.03 0.03 0.03 0.06 0.07 0.04 0.03 0.02 0.02 0.03 0.02 0.02 0.02 0.02 0.01 0.00 0.00 0.01 0.06 0.15 0.23 0.31 0.36 0.36 0.35 0.35
0.00 0.00 0.00 0.00 0.01 0.01 0.01 0.00 0.01 0.01 0.01 0.01 0.02 0.02 0.02 0.01 0.04 0.07 0.05 0.05 0.06 0.07 0.07 0.06 0.07 0.07 0.06 0.03 0.04 0.06 0.03 0.00 0.00 0.00 0.00 0.08 0.15 0.20 0.26 0.30 0.34 0.39 0.45
0.00 0.00 0.00 0.00 0.00 0.01 0.00 0.00 0.00 0.00 0.00 0.00 0.01 0.04 0.07 0.10 0.10 0.04 0.06 0.09 0.15 0.20 0.16 0.14 0.16 0.11 0.10 0.08 0.27 0.43 0.08 0.02 0.02 0.02 0.02 0.07 0.15 0.28 0.31 0.28 0.29 0.33 0.35
0.00 0.00 0.00 0.00 0.00 0.00 0.00 0.00 0.00 0.00 0.00 0.00 0.00 0.03 0.06 0.06 0.03 0.00 0.03 0.08 0.13 0.20 0.18 0.26 0.31 0.27 0.27 0.24 0.29 0.36 0.11 0.06 0.06 0.03 0.06 0.11 0.14 0.25 0.32 0.28 0.25 0.23 0.21
0.00 0.00 0.00 0.00 0.00 0.00 0.00 0.00 0.00 0.00 0.00 0.00 0.00 0.00 0.02 0.02 0.01 0.02 0.08 0.13 0.15 0.15 0.24 0.21 0.29 0.26 0.15 0.10 0.10 0.09 0.08 0.10 0.09 0.11 0.18 0.12 0.11 0.18 0.26 0.24 0.19 0.15 0.18
0.00 0.00 0.00 0.00 0.00 0.00 0.00 0.00 0.00 0.00 0.00 0.00 0.00 0.00 0.00 0.02 0.04 0.08 0.07 0.10 0.05 0.10 0.16 0.15 0.11 0.16 0.19 0.10 0.07 0.05 0.07 0.08 0.08 0.14 0.18 0.16 0.10 0.09 0.12 0.16 0.15 0.13 0.16
0.00 0.00 0.00 0.00 0.00 0.00 0.00 0.00 0.00 0.00 0.00 0.00 0.00 0.00 0.00 0.03 0.09 0.15 0.14 0.14 0.11 0.13 0.19 0.21 0.18 0.33 0.25 0.16 0.12 0.09 0.07 0.07 0.08 0.11 0.13 0.15 0.10 0.05 0.04 0.07 0.10 0.10 0.11
0.00 0.00 0.01 0.02 0.00 0.00 0.00 0.00 0.01 0.02 0.01 0.01 0.01 0.01 0.03 0.05 0.13 0.21 0.25 0.23 0.25 0.23 0.29 0.30 0.34 0.40 0.24 0.21 0.16 0.09 0.06 0.04 0.04 0.05 0.04 0.06 0.09 0.08 0.04 0.04 0.06 0.07 0.07
0.00 0.01 0.03 0.06 0.02 0.01 0.02 0.02 0.04 0.05 0.04 0.04 0.06 0.07 0.11 0.16 0.22 0.33 0.35 0.30 0.40 0.43 0.43 0.46 0.48 0.44 0.37 0.29 0.19 0.10 0.04 0.03 0.01 0.01 0.01 0.02 0.04 0.06 0.05 0.05 0.06 0.07 0.07
0.03 0.03 0.04 0.05 0.05 0.08 0.10 0.09 0.12 0.15 0.13 0.14 0.19 0.21 0.27 0.31 0.35 0.45 0.42 0.47 0.51 0.50 0.51 0.38 0.48 0.47 0.47 0.41 0.24 0.16 0.07 0.03 0.02 0.01 0.01 0.01 0.01 0.02 0.02 0.03 0.03 0.05 0.08
0.11 0.11 0.16 0.20 0.21 0.25 0.26 0.23 0.26 0.28 0.26 0.30 0.36 0.44 0.49 0.48 0.49 0.57 0.54 0.56 0.55 0.57 0.56 0.54 0.55 0.57 0.55 0.51 0.29 0.20 0.13 0.06 0.03 0.03 0.04 0.03 0.02 0.01 0.01 0.02 0.08 0.07 0.09
0.35 0.39 0.47 0.55 0.54 0.56 0.56 0.55 0.60 0.61 0.61 0.62 0.58 0.55 0.55 0.52 0.54 0.63 0.55 0.60 0.53 0.49 0.54 0.57 0.62 0.57 0.57 0.64 0.49 0.26 0.11 0.06 0.06 0.08 0.11 0.11 0.07 0.03 0.02 0.03 0.07 0.09 0.10
0.71 0.74 0.78 0.78 0.78 0.88 1.00 1.10 1.18 1.23 1.08 0.94 0.86 0.77 0.69 0.65 0.64 0.62 0.60 0.55 0.51 0.55 0.63 0.66 0.76 0.69 0.53 0.59 0.58 0.44 0.19 0.14 0.17 0.14 0.17 0.17 0.11 0.06 0.05 0.05 0.07 0.13 0.13
0.66 0.74 0.87 0.94 0.99 1.09 1.24 1.35 1.38 1.38 1.24 1.14 1.03 0.94 0.81 0.71 0.64 0.62 0.60 0.58 0.64 0.67 0.70 0.71 0.73 0.73 0.60 0.59 0.65 0.67 0.44 0.29 0.18 0.07 0.10 0.12 0.14 0.15 0.12 0.11 0.12 0.16 0.16
0.59 0.70 0.88 1.00 1.05 1.14 1.25 1.32 1.30 1.29 1.17 1.14 1.14 1.04 0.92 0.79 0.72 0.65 0.60 0.57 0.56 0.59 0.62 0.56 0.64 0.77 0.73 0.61 0.68 0.74 0.70 0.58 0.44 0.19 0.12 0.15 0.23 0.25 0.24 0.20 0.14 0.12 0.15
0.58 0.70 0.80 0.89 0.94 0.98 1.00 1.04 1.07 1.06 1.06 1.06 1.00 0.91 0.82 0.74 0.70 0.63 0.55 0.51 0.47 0.47 0.55 0.59 0.66 0.70 0.73 0.69 0.68 0.75 0.77 0.73 0.73 0.59 0.36 0.36 0.36 0.29 0.29 0.25 0.18 0.15 0.16
0.66 0.76 0.81 0.82 0.80 0.78 0.76 0.79 0.83 0.85 0.89 0.89 0.86 0.84 0.80 0.75 0.68 0.63 0.60 0.55 0.50 0.52 0.59 0.62 0.63 0.61 0.65 0.68 0.71 0.76 0.76 0.75 0.82 0.84 0.65 0.52 0.41 0.31 0.30 0.26 0.23 0.20 0.18

GEFSSE_prec_meanprecacc_036.txt.gz
Total_Precipitation_Accumulation
0.00 0.00 0.01 0.01 0.01 0.03 0.03 0.02 0.01 0.01 0.01 0.01 0.02 0.02 0.01 0.01 0.00 0.00 0.00 0.01 0.01 0.01 0.02 0.03 0.03 0.03 0.02 0.02 0.02 0.01 0.00 0.00 0.00 0.00 0.00 0.00 0.00 0.00 0.00 0.00 0.01 0.00 0.00
0.00 0.00 0.00 0.00 0.01 0.03 0.05 0.05 0.03 0.02 0.01 0.01 0.01 0.02 0.02 0.01 0.00 0.00 0.00 0.00 0.00 0.01 0.01 0.02 0.02 0.01 0.01 0.01 0.01 0.01 0.01 0.00 0.00 0.00 0.00 0.00 0.00 0.00 0.00 0.00 0.01 0.00 0.00
0.00 0.00 0.00 0.00 0.01 0.03 0.05 0.05 0.06 0.05 0.02 0.01 0.01 0.03 0.06 0.03 0.01 0.00 0.00 0.00 0.00 0.00 0.00 0.01 0.01 0.01 0.00 0.00 0.00 0.01 0.01 0.01 0.00 0.00 0.00 0.01 0.01 0.00 0.00 0.00 0.00 0.00 0.00
0.00 0.00 0.00 0.00 0.01 0.02 0.03 0.05 0.07 0.06 0.03 0.02 0.04 0.06 0.07 0.04 0.01 0.00 0.00 0.00 0.00 0.00 0.00 0.00 0.01 0.00 0.00 0.00 0.00 0.00 0.00 0.00 0.00 0.00 0.00 0.04 0.05 0.01 0.00 0.00 0.00 0.00 0.00
0.00 0.00 0.01 0.01 0.01 0.02 0.02 0.03 0.07 0.09 0.06 0.05 0.08 0.09 0.07 0.06 0.04 0.02 0.02 0.02 0.02 0.00 0.00 0.00 0.01 0.01 0.00 0.00 0.00 0.00 0.00 0.00 0.00 0.00 0.01 0.04 0.09 0.05 0.02 0.02 0.02 0.01 0.01
0.00 0.00 0.00 0.02 0.02 0.02 0.02 0.02 0.04 0.09 0.08 0.06 0.08 0.11 0.09 0.11 0.12 0.07 0.03 0.04 0.05 0.02 0.01 0.01 0.00 0.00 0.01 0.01 0.00 0.00 0.00 0.00 0.00 0.01 0.01 0.02 0.11 0.13 0.07 0.10 0.10 0.08 0.04
0.00 0.00 0.00 0.02 0.02 0.01 0.02 0.03 0.03 0.05 0.06 0.04 0.05 0.05 0.04 0.08 0.15 0.11 0.07 0.05 0.05 0.03 0.02 0.01 0.01 0.01 0.01 0.01 0.01 0.01 0.01 0.00 0.01 0.02 0.02 0.02 0.05 0.08 0.11 0.19 0.22 0.20 0.17
0.00 0.00 0.00 0.01 0.01 0.01 0.00 0.02 0.04 0.04 0.02 0.01 0.01 0.00 0.01 0.02 0.03 0.06 0.07 0.06 0.04 0.02 0.02 0.01 0.01 0.01 0.01 0.02 0.02 0.02 0.02 0.01 0.01 0.02 0.02 0.03 0.06 0.09 0.20 0.28 0.31 0.30 0.29
0.00 0.00 0.00 0.00 0.01 0.00 0.00 0.01 0.02 0.02 0.02 0.01 0.00 0.00 0.01 0.01 0.02 0.04 0.05 0.05 0.05 0.04 0.03 0.02 0.02 0.02 0.02 0.02 0.02 0.02 0.02 0.01 0.01 0.02 0.03 0.09 0.21 0.24 0.37 0.43 0.37 0.34 0.34
0.00 0.00 0.00 0.00 0.01 0.01 0.01 0.01 0.02 0.02 0.01 0.01 0.00 0.00 0.00 0.01 0.01 0.03 0.03 0.03 0.06 0.07 0.04 0.03 0.02 0.02 0.03 0.02 0.02 0.02 0.02 0.01 0.00 0.00 0.01 0.06 0.16 0.28 0.39 0.42 0.40 0.38 0.37
0.00 0.00 0.00 0.00 0.01 0.01 0.01 0.00 0.01 0.01 0.01 0.01 0.02 0.02 0.02 0.01 0.04 0.07 0.05 0.05 0.06 0.07 0.07 0.06 0.07 0.07 0.06 0.03 0.05 0.08 0.04 0.00 0.00 0.00 0.01 0.08 0.15 0.24 0.34 0.36 0.38 0.43 0.47
0.00 0.00 0.00 0.00 0.00 0.01 0.00 0.00 0.00 0.00 0.00 0.00 0.01 0.04 0.07 0.10 0.10 0.05 0.06 0.09 0.15 0.20 0.16 0.14 0.16 0.11 0.10 0.08 0.28 0.46 0.09 0.02 0.02 0.02 0.03 0.07 0.15 0.31 0.37 0.34 0.32 0.36 0.38
0.00 0.00 0.00 0.00 0.00 0.00 0.00 0.00 0.00 0.00 0.00 0.00 0.00 0.03 0.06 0.06 0.03 0.00 0.03 0.08 0.13 0.20 0.18 0.26 0.31 0.27 0.27 0.24 0.29 0.36 0.12 0.07 0.06 0.04 0.07 0.11 0.15 0.27 0.36 0.31 0.28 0.25 0.23
0.00 0.00 0.00 0.00 0.00 0.00 0.00 0.00 0.00 0.00 0.00 0.00 0.00 0.00 0.02 0.02 0.01 0.02 0.08 0.13 0.15 0.16 0.24 0.22 0.29 0.27 0.16 0.11 0.11 0.11 0.10 0.11 0.10 0.12 0.19 0.12 0.11 0.19 0.28 0.26 0.20 0.17 0.20
0.00 0.00 0.00 0.01 0.01 0.01 0.00 0.00 0.00 0.00 0.00 0.00 0.00 0.00 0.00 0.02 0.04 0.08 0.08 0.10 0.05 0.11 0.17 0.16 0.12 0.18 0.21 0.12 0.08 0.07 0.09 0.11 0.10 0.15 0.19 0.16 0.10 0.10 0.13 0.18 0.18 0.16 0.19
0.02 0.02 0.01 0.01 0.01 0.01 0.01 0.00 0.00 0.01 0.00 0.00 0.00 0.00 0.01 0.03 0.09 0.15 0.14 0.14 0.11 0.13 0.20 0.22 0.20 0.36 0.28 0.20 0.15 0.12 0.11 0.11 0.11 0.13 0.14 0.16 0.11 0.06 0.05 0.10 0.15 0.16 0.16
0.18 0.11 0.05 0.05 0.04 0.03 0.02 0.02 0.02 0.03 0.02 0.01 0.01 0.02 0.04 0.06 0.14 0.22 0.27 0.25 0.27 0.25 0.31 0.33 0.38 0.44 0.28 0.26 0.20 0.14 0.10 0.09 0.10 0.10 0.09 0.10 0.12 0.11 0.06 0.06 0.10 0.13 0.15
0.21 0.16 0.17 0.21 0.17 0.10 0.09 0.08 0.08 0.08 0.07 0.07 0.08 0.10 0.14 0.19 0.27 0.38 0.40 0.35 0.46 0.49 0.48 0.52 0.55 0.50 0.43 0.35 0.25 0.14 0.08 0.09 0.07 0.05 0.05 0.06 0.08 0.09 0.08 0.08 0.11 0.12 0.15
0.26 0.31 0.36 0.38 0.35 0.32 0.30 0.23 0.22 0.24 0.19 0.19 0.24 0.28 0.34 0.41 0.47 0.57 0.53 0.59 0.66 0.64 0.65 0.53 0.61 0.58 0.56 0.51 0.34 0.22 0.11 0.07 0.05 0.04 0.05 0.05 0.06 0.05 0.04 0.06 0.06 0.08 0.15
0.32 0.36 0.38 0.42 0.54 0.70 0.71 0.62 0.57 0.46 0.39 0.40 0.46 0.54 0.61 0.64 0.70 0.80 0.77 0.82 0.84 0.86 0.82 0.78 0.75 0.72 0.67 0.63 0.41 0.27 0.18 0.09 0.06 0.05 0.06 0.06 0.04 0.03 0.03 0.05 0.12 0.09 0.15
0.52 0.57 0.66 0.82 0.91 1.00 0.96 0.84 0.81 0.78 0.79 0.77 0.73 0.69 0.71 0.71 0.79 0.94 0.91 1.00 0.95 0.87 0.89 0.90 0.88 0.77 0.73 0.81 0.62 0.33 0.14 0.08 0.08 0.09 0.12 0.13 0.08 0.04 0.03 0.05 0.09 0.13 0.15
0.80 0.83 0.88 0.90 0.93 1.06 1.22 1.29 1.33 1.40 1.22 1.07 1.00 0.90 0.85 0.88 0.92 0.95 0.98 0.95 0.92 0.95 0.98 0.94 1.01 0.88 0.66 0.74 0.71 0.54 0.25 0.17 0.19 0.16 0.19 0.20 0.15 0.10 0.08 0.08 0.11 0.19 0.20
0.68 0.77 0.90 0.98 1.03 1.15 1.32 1.46 1.50 1.53 1.36 1.25 1.15 1.06 0.95 0.94 0.92 0.94 0.95 1.02 1.13 1.14 1.04 0.99 0.98 0.92 0.73 0.70 0.78 0.80 0.53 0.36 0.24 0.09 0.12 0.16 0.21 0.24 0.19 0.19 0.19 0.21 0.24
0.59 0.70 0.88 1.01 1.06 1.16 1.29 1.37 1.36 1.36 1.25 1.24 1.26 1.14 1.05 0.97 0.94 0.93 0.94 0.96 0.94 0.93 0.89 0.80 0.85 0.94 0.87 0.74 0.80 0.85 0.81 0.70 0.54 0.26 0.15 0.18 0.27 0.31 0.30 0.26 0.20 0.17 0.23
0.58 0.70 0.80 0.89 0.94 0.98 1.01 1.05 1.08 1.08 1.09 1.11 1.05 0.97 0.90 0.86 0.85 0.84 0.80 0.78 0.71 0.71 0.78 0.79 0.82 0.84 0.85 0.79 0.77 0.84 0.87 0.86 0.89 0.72 0.43 0.40 0.39 0.31 0.32 0.28 0.22 0.20 0.23
0.66 0.76 0.81 0.82 0.80 0.78 0.76 0.79 0.83 0.86 0.89 0.90 0.88 0.88 0.84 0.81 0.74 0.71 0.72 0.71 0.67 0.69 0.76 0.78 0.78 0.73 0.76 0.77 0.80 0.86 0.87 0.88 0.96 0.99 0.75 0.59 0.45 0.33 0.32 0.28 0.25 0.23 0.23